Probability
9 11 16 23 24 23 22 21 20 19 16 14 13 13 13 13 12 10 7 4 3 4 4 4 3 2 1 0 0 0 0 0 0 0 0 0 0 0 1 2 1 0 0
15 17 23 28 28 27 26 24 21 18 17 16 15 14 14 14 13 11 8 6 5 4 3 2 2 2 1 0 0 0 0 0 0 0 0 0 0 0 1 2 1 0 0
24 27 33 36 35 33 31 28 25 21 18 18 17 15 15 14 13 12 10 9 8 6 3 2 2 2 1 0 0 0 0 0 0 0 0 0 0 0 0 1 1 0 0
30 34 39 41 40 37 35 33 31 26 21 19 17 16 15 14 13 12 11 10 9 8 5 3 3 2 1 0 0 0 0 0 0 0 0 0 0 0 0 0 0 0 0
34 36 40 43 44 41 39 37 34 29 24 20 18 17 16 16 15 14 13 11 10 9 7 6 5 3 1 0 0 0 0 0 0 0 0 0 0 0 0 0 0 0 0
35 36 40 44 45 42 41 38 33 28 25 22 19 18 17 17 16 15 14 13 12 10 9 8 7 4 2 1 0 0 0 0 0 0 0 0 0 0 0 0 0 0 0
33 33 37 42 42 38 36 33 28 25 23 21 20 19 17 16 16 15 14 13 13 12 11 10 7 5 3 1 0 0 0 0 0 0 0 0 0 0 0 0 0 0 0
26 29 34 38 37 33 30 27 24 21 20 20 20 19 17 15 14 14 13 13 13 13 12 11 7 4 3 2 1 0 0 0 0 0 0 0 0 0 0 0 1 1 0
22 25 30 33 32 30 28 24 21 19 18 19 19 18 16 14 13 14 13 12 12 13 12 10 6 4 3 2 1 0 0 0 0 0 0 0 1 1 1 1 2 2 1
22 24 26 28 29 29 26 22 18 16 15 16 17 16 15 13 13 14 13 11 11 11 11 8 5 3 3 2 1 0 0 0 0 0 0 0 2 3 2 2 2 2 2
23 23 24 25 26 26 22 17 14 12 12 12 14 14 13 13 13 13 12 10 9 8 7 6 4 3 2 1 0 0 0 0 0 0 0 0 1 2 2 2 1 1 2
22 21 22 22 21 20 17 12 10 9 9 9 10 11 11 11 12 11 10 8 6 5 4 4 3 2 1 0 0 0 0 0 0 0 0 0 0 1 1 1 0 0 1
17 17 17 17 16 15 14 11 8 7 7 7 8 8 9 10 10 9 7 5 4 3 3 3 2 1 0 0 0 0 0 0 0 0 0 0 0 0 0 0 0 0 0
14 13 13 14 13 13 12 10 7 5 5 5 6 7 7 8 8 6 4 3 3 3 3 3 1 0 0 0 0 0 0 0 0 0 0 0 0 0 0 0 0 0 0
14 13 11 12 12 12 11 9 5 3 3 4 6 6 6 7 6 4 3 3 3 3 3 2 1 0 0 0 0 0 0 0 0 0 0 0 0 0 0 0 0 0 0
14 12 11 10 11 11 10 7 5 3 3 4 5 5 5 5 4 3 3 3 3 3 3 2 1 0 0 0 0 0 0 0 0 0 0 0 0 0 0 0 0 0 0
9 9 10 10 10 10 9 7 5 4 3 2 2 3 3 4 3 3 3 3 3 3 3 3 1 1 0 0 0 0 0 0 0 0 0 0 0 0 0 0 0 0 0
4 6 9 10 10 10 9 8 6 5 3 1 0 1 2 3 3 3 3 3 3 3 3 3 2 1 0 0 0 0 0 0 0 0 0 0 0 0 0 0 0 0 0
1 3 7 9 10 10 9 8 6 3 1 0 0 0 1 3 3 3 3 3 3 3 3 3 2 1 0 0 0 0 0 0 0 0 0 0 0 0 0 0 0 0 0
1 2 5 8 9 9 9 8 6 2 0 0 0 0 1 2 3 3 3 3 3 3 3 3 1 0 0 0 0 0 0 0 0 0 0 0 0 0 0 0 0 0 0
1 1 3 5 7 8 9 8 6 3 1 0 0 0 0 1 2 3 3 3 3 3 3 2 1 0 0 0 0 0 0 0 0 0 0 0 0 0 0 0 0 0 0
1 2 2 3 5 7 7 6 5 3 1 0 0 0 0 0 1 3 3 3 3 3 3 1 0 0 0 0 0 0 0 0 0 0 0 0 0 0 0 0 0 0 0
1 2 3 3 4 5 5 5 4 3 2 1 1 1 0 0 1 2 3 3 3 3 2 1 0 0 0 0 0 0 0 0 0 0 0 0 0 0 0 0 0 0 0
1 2 3 4 5 5 4 3 3 3 3 3 2 2 1 0 1 2 3 3 3 3 2 1 0 0 0 0 0 0 0 0 0 0 0 0 0 0 0 0 0 0 0
0 1 3 4 5 5 3 3 3 3 3 3 3 3 2 1 0 1 2 2 2 2 1 0 0 0 0 0 0 0 0 0 0 0 0 0 0 0 0 0 0 0 0
0 1 2 4 5 5 4 3 3 3 3 3 3 3 3 2 1 0 1 1 1 1 0 0 0 0 0 0 0 0 0 0 0 0 0 0 0 0 0 0 0 0 0
Wind_Speed
6 8 13 14 14 14 14 14 14 13 13 13 13 14 14 14 13 13 12 12 11 11 11 11 10 10 10 10 10 10 9 10 9 9 9 9 8 8 8 8 7 4 8
10 10 14 14 15 15 14 14 13 13 13 12 13 13 13 13 13 12 12 12 11 10 10 10 10 10 10 10 10 9 10 10 10 9 9 8 8 8 8 8 7 5 7
12 11 13 14 14 14 14 14 13 13 13 13 13 13 12 12 12 12 11 11 10 10 9 9 9 9 9 9 9 9 9 9 9 9 8 4 4 8 8 7 7 7 6
12 11 11 14 14 15 15 14 14 13 13 13 13 12 12 12 11 11 11 10 10 9 9 8 8 8 8 8 8 8 9 9 9 8 4 3 3 7 8 8 8 7 6
10 10 11 14 15 15 15 15 14 14 13 13 13 12 12 12 12 11 10 10 10 9 9 8 8 8 7 7 7 8 8 8 8 6 3 3 2 5 7 7 7 7 6
9 9 11 15 15 15 15 14 14 14 14 13 13 12 12 12 11 11 10 10 10 9 9 8 8 8 7 7 7 7 7 8 6 4 3 3 2 5 6 7 7 7 6
10 8 10 14 15 15 15 14 14 13 13 13 13 12 12 12 11 11 10 10 9 9 9 8 8 8 7 7 7 8 8 7 4 3 3 2 2 5 6 6 6 6 6
10 9 10 14 14 14 14 14 13 13 13 13 13 12 12 12 11 11 10 10 9 9 8 8 7 7 7 7 7 7 7 6 5 3 2 2 4 5 6 6 6 6 6
9 8 7 8 10 12 12 13 13 12 12 12 12 12 11 11 10 10 10 9 8 8 8 7 7 6 6 6 7 7 7 7 4 2 2 2 4 5 5 5 6 6 6
7 7 7 7 7 7 8 11 11 11 11 11 11 10 10 9 9 10 9 8 8 8 7 6 6 6 6 6 7 7 7 6 3 3 2 2 4 5 5 5 5 5 6
7 6 6 6 7 7 6 8 9 9 9 9 8 9 8 4 4 5 6 7 7 7 6 6 6 6 6 6 7 7 6 2 2 2 1 3 5 5 5 5 5 5 6
9 7 6 6 7 6 6 5 4 4 4 4 4 5 4 3 3 4 6 7 7 6 6 6 7 6 5 3 4 5 2 3 2 1 2 4 4 5 5 5 5 5 6
9 8 6 6 6 6 5 4 3 2 3 3 4 5 4 3 3 3 2 3 3 4 3 4 4 3 3 2 2 2 2 2 1 1 2 4 4 5 5 6 6 6 7
9 8 7 6 6 5 5 4 4 3 3 3 3 4 4 3 3 2 2 2 2 1 2 2 2 3 3 3 3 3 3 2 1 1 2 4 5 5 6 6 6 7 7
9 8 7 7 6 5 5 4 4 3 3 3 3 3 4 4 3 3 2 2 2 2 2 2 2 3 3 3 3 3 3 2 2 2 2 5 5 5 6 6 7 7 8
8 8 7 7 7 6 4 4 4 3 3 3 3 3 4 4 4 3 3 2 2 2 2 2 2 2 2 2 3 2 2 2 2 2 1 3 6 6 6 7 7 8 8
7 7 7 8 7 7 5 5 4 3 3 3 3 3 4 4 4 4 3 2 2 2 2 2 3 3 2 3 3 2 2 2 1 1 1 1 2 5 7 8 8 9 9
7 7 7 7 7 7 5 5 4 3 3 3 3 3 4 4 5 4 3 2 2 2 2 2 2 2 2 2 2 1 1 1 2 1 1 2 2 2 5 8 8 9 10
7 7 6 6 7 6 6 4 4 4 3 3 2 3 3 4 5 4 3 2 3 3 2 2 2 2 2 2 1 1 2 1 1 1 2 2 2 2 2 5 9 9 11
5 6 6 6 5 6 5 4 3 3 2 2 2 3 4 4 5 4 3 3 3 3 2 2 3 2 1 1 2 2 2 2 2 1 1 1 2 3 3 3 4 6 10
5 5 6 6 5 5 4 4 3 3 3 2 2 3 4 4 5 4 4 3 3 3 3 3 3 3 2 1 2 2 3 3 2 1 2 2 2 3 3 3 3 3 4
5 5 5 5 5 5 4 3 2 3 3 2 1 2 3 4 4 4 5 4 3 3 3 3 3 2 1 1 2 2 2 4 3 3 2 1 2 3 3 4 4 3 3
4 5 5 5 5 4 4 3 3 3 2 2 2 2 2 4 4 4 5 4 4 3 3 3 3 3 2 1 1 2 2 1 2 3 2 2 2 2 3 3 4 4 5
4 3 4 4 5 5 5 5 6 5 4 4 3 3 2 3 3 4 4 4 4 3 3 3 3 2 3 1 0 1 1 3 1 2 3 2 3 3 3 4 4 4 4
3 3 3 4 4 4 4 6 6 4 3 3 3 4 3 2 3 4 4 4 4 3 3 3 3 2 2 2 2 1 1 1 1 2 3 3 3 3 3 3 3 3 4
2 2 3 4 3 4 4 5 5 5 5 5 4 4 3 2 2 3 4 4 4 3 3 3 3 3 2 2 1 1 2 1 1 1 2 3 4 3 4 3 2 3 3
Wind_Direction
165 166 154 147 143 138 134 130 127 124 121 119 115 114 113 111 110 110 108 105 102 98 95 92 88 86 86 85 81 79 76 73 70 69 67 66 66 65 65 61 56 52 60
154 157 149 146 142 139 136 133 129 127 123 120 119 117 116 114 113 111 108 106 103 99 95 91 88 85 85 83 80 78 77 76 72 66 62 58 60 64 65 62 58 57 57
145 149 146 143 141 138 136 133 129 127 125 122 122 121 120 118 115 113 111 107 104 100 97 93 89 86 85 83 80 78 78 76 72 64 55 37 46 64 65 65 61 57 55
143 145 145 142 141 138 136 133 130 127 124 123 123 122 122 120 118 115 112 109 105 101 97 95 89 85 87 84 81 80 79 75 69 62 48 34 34 63 65 63 60 56 53
138 143 143 142 141 138 136 133 131 129 125 122 121 121 120 118 116 113 111 108 104 101 97 92 87 84 89 85 82 80 79 74 65 53 38 29 24 58 62 60 57 54 51
134 140 143 143 141 138 136 133 131 130 127 124 122 121 120 119 116 112 108 106 104 100 96 91 89 84 84 84 81 79 80 74 61 47 34 21 21 53 57 55 52 48 44
136 139 142 142 140 138 135 134 132 131 130 127 124 122 121 120 117 112 109 105 102 100 98 94 90 86 82 79 74 75 80 74 65 47 31 17 29 52 54 50 45 41 39
137 136 139 140 138 137 135 134 133 132 132 130 127 124 122 119 117 114 110 106 102 100 97 96 91 88 83 77 72 71 71 66 63 49 31 17 49 56 54 50 46 42 38
132 131 132 137 135 134 133 132 132 132 132 130 128 125 121 118 117 115 110 106 103 100 96 95 92 87 81 72 69 71 70 64 61 43 30 10 46 50 49 45 41 37 32
125 129 130 130 129 130 130 128 129 131 130 129 125 121 117 115 114 112 110 108 104 100 98 93 91 84 75 66 65 65 65 62 56 43 14 11 39 41 41 35 30 25 19
130 131 131 130 130 128 129 129 126 125 125 124 122 117 111 107 108 107 108 106 103 98 92 87 82 74 65 57 58 61 60 63 59 39 7 27 37 35 33 29 21 16 12
150 147 141 137 136 133 128 120 119 118 120 120 121 119 116 111 104 100 94 95 94 87 80 75 68 59 53 45 50 57 60 63 57 28 13 29 30 32 32 25 18 13 9
156 151 149 145 140 137 131 131 121 119 119 117 123 122 116 104 97 88 85 77 76 74 64 58 56 52 48 44 49 56 62 63 50 14 9 26 30 31 33 28 22 14 8
155 156 153 149 142 143 139 135 133 131 129 129 130 129 124 117 109 108 100 93 87 82 77 69 69 61 55 49 55 62 60 61 51 25 9 28 34 34 30 24 16 9 4
159 158 156 152 147 146 139 140 136 139 139 140 133 131 132 130 129 121 111 102 93 89 90 84 76 70 61 51 52 62 61 60 56 40 18 28 28 27 20 14 9 3 359
163 162 156 155 150 143 143 144 143 142 138 134 134 136 134 132 134 128 118 110 96 96 97 99 91 81 66 58 52 52 57 57 55 46 27 19 23 18 12 7 4 359 354
161 158 157 157 151 147 146 146 141 141 135 135 138 139 135 133 134 130 125 119 111 100 93 85 76 70 58 49 46 39 49 50 53 44 31 26 15 16 15 7 3 359 353
151 153 160 157 151 150 147 144 142 138 134 139 140 141 139 134 132 126 124 123 115 101 96 94 85 74 55 46 35 19 30 39 42 43 44 39 28 17 12 9 2 358 352
154 153 153 148 151 149 141 136 135 132 134 141 138 141 145 138 132 128 127 124 113 99 91 96 80 86 75 41 32 30 20 21 18 38 39 36 34 25 13 6 3 358 352
150 148 145 140 142 138 130 123 118 116 125 134 146 152 147 143 135 127 123 120 114 104 91 92 95 75 82 67 49 31 9 4 20 30 15 16 23 24 17 3 354 349 349
135 138 145 143 144 140 142 146 148 154 153 157 163 156 148 146 140 134 127 123 120 121 124 121 111 92 54 50 61 22 360 2 12 9 7 12 10 9 6 355 345 338 335
148 151 153 156 157 157 162 164 161 149 155 159 160 153 151 149 149 146 140 136 133 127 120 123 119 109 59 45 95 80 9 348 349 355 348 360 357 358 359 351 343 336 327
159 166 169 169 163 161 152 130 120 101 102 123 155 172 171 158 151 149 147 142 143 140 144 152 144 136 143 11 71 126 131 236 308 323 332 346 351 352 339 335 338 335 333
175 168 165 165 162 158 153 156 163 162 169 182 174 173 168 159 154 156 153 149 148 144 146 156 148 151 143 149 34 60 149 165 177 308 318 330 339 335 325 329 332 328 329
159 162 161 160 158 158 161 168 167 163 163 153 149 154 161 165 165 162 156 151 151 149 151 146 142 145 149 156 163 148 92 81 171 185 281 312 326 314 312 310 310 317 324
133 147 150 156 164 164 163 169 167 165 160 156 161 170 174 169 166 167 162 155 152 151 154 151 149 143 139 142 146 154 159 174 205 192 248 290 302 300 305 303 302 311 319